Location: ???
(60.6398°N, 46.9067°E)
Time: 18:33:20
(UTC+00:00)

OPS 8737 - Pass Details

Date: 08 December 2019
Orbit: 373 x 1734 km, 63.2° (Epoch: 19 November)

Event Time Altitude Azimuth Distance (km) Brightness Sun altitude
Rises 14:30:33 0° 266° (W) 2,350 9.6 -18.0°
Reaches altitude 10° 14:32:41 10° 272° (W) 1,425 8.1 -18.3°
Maximum altitude 14:35:39 54° 351° (N) 467 4.4 -18.7°
Enters shadow 14:35:42 54° 356° (N) 468 4.3 -18.7°
